Regional Weather Roundup
Issued by NWS

Home | Current Version | Previous Version | Graphics & Text | Print | Product List | Glossary On
Versions: 1 2 3 4 5 6 7 8 9 10 11 12 13 14 15 16 17 18 19 20 21 22 23 24 25 26 27 28 29 30 31 32 33 34 35 36 37 38 39 40 41 42 43 44 45 46 47 48 49 50
000
ASUS43 KLOT 271303
RWRIL

ILLINOIS REGIONAL WEATHER ROUNDUP
NATIONAL WEATHER SERVICE CHICAGO/ROMEOVILLE IL
800 AM CDT SAT AUG 27 2016

NOTE: "FAIR" INDICATES FEW OR NO CLOUDS BELOW 12,000 FEET WITH NO
SIGNIFICANT WEATHER AND/OR OBSTRUCTIONS TO VISIBILITY.

* THESE STATIONS ARE NOT UNDER NWS QUALITY CONTROL. THEY ALSO MAY NOT
  REPORT WEATHER SUCH AS PRECIPITATION OR FOG.

ILZ001-002-007-009-015-016-024-271400-
NORTHWEST ILLINOIS

CITY           SKY/WX    TMP DP  RH WIND       PRES   REMARKS
MOLINE         MOSUNNY   72  69  90 S3        30.03S
SAVANNA*       CLOUDY    69  67  96 CALM      30.05R FOG
$$

ILZ003-004-008-010-011-017-018-271400-
NORTH CENTRAL ILLINOIS

CITY           SKY/WX    TMP DP  RH WIND       PRES   REMARKS
ROCKFORD       CLOUDY    67  65  93 CALM      30.09R
FREEPORT*      CLOUDY    65  64  97 E8        30.10R FOG
ROCHELLE*      CLOUDY    68  67  98 CALM      30.08R FOG
$$

ILZ005-006-012>014-019>023-271400-
NORTHEAST ILLINOIS

CITY           SKY/WX    TMP DP  RH WIND       PRES   REMARKS
CHICAGO-OHARE  LGT RAIN  70  69  97 S6        30.07F
CHICAGO-MIDWAY RAIN      71  69  93 E9        30.07F FOG
AURORA         CLOUDY    71  69  93 E6        30.06F
LANSING*       LGT RAIN  70  70 100 CALM      30.10R
JOLIET*        LGT RAIN  71  71  99 SE5       30.07F
WAUKEGAN       LGT RAIN  69  68  96 SE7       30.07F FOG
DUPAGE AIRPORT CLOUDY    70  68  93 SE6       30.07S
KANKAKEE*      CLOUDY    71  70  98 SE5       30.11R
WHEELING       LGT RAIN  69  68  96 CALM      30.10R
MORRIS*        RAIN      71  70  97 CALM      30.06R
ROMEOVILLE*    LGT RAIN  69  69 100 SE7       30.07F
NORTHERLY ISL    N/A     70  68  93 CALM        N/A
$$

LMZ740>746-271400-
SOUTHERN LAKE MICHIGAN

STATION/POSITION SKY/WX   TEMP    WIND        PRES    VSBY  WAVE
                          AIR SEA DIR/SP/G                  HT/PER
                          (F)     (DEG/KT/KT) (MB)    (MI)  (FT/S)
SOUTHERN BUOY              71 74  120/ 14/ 16 1018.4          2/ 4
WILMETTE HARBOR            69 69  180/  6/ 10   N/A           2/ 4
HARRISON CRIB              71     100/  5/  6   N/A
BURNHAM HARBOR             70      80/  4/  5   N/A
CALUMET HARBOR             69     110/  3/  5 1018.6R
BURNS HARBOR               70      CALM  /  5 1020.0R
MICHIGAN CITY              69      30/  6/  6   N/A
MICHIGAN CITY 6N           70 74   50/  6/  8   N/A           1/ 4
ST. JOSEPH                 69 75  290/  8/ 14 1020.0R         1
$$

ILZ025>027-034>036-040-047-049-050-058-095>099-271400-
WEST-CENTRAL ILLINOIS

CITY           SKY/WX    TMP DP  RH WIND       PRES   REMARKS
QUINCY         CLOUDY    70  70 100 S5        30.05S
GALESBURG*     PTSUNNY   69  69  98 S7        30.05R
MACOMB*        PTSUNNY   69  69 100 S5        30.07S
JACKSONVILLE*  LGT RAIN  72  71  96 CALM      30.05S
PITTSFIELD*    CLOUDY    72  71  98 CALM      30.07S
$$

ILZ028>032-037-038-041>044-048-051>054-059>061-271400-
CENTRAL ILLINOIS

CITY           SKY/WX    TMP DP  RH WIND       PRES   REMARKS
PONTIAC        LGT RAIN  72  72 100 CALM      30.07F
BLOOMINGTON    CLOUDY    71  71 100 SE5       30.08F FOG
DECATUR        CLOUDY    73  71  93 SE7       30.09F
PEORIA         CLOUDY    71  71 100 S5        30.04F
LACON*         CLOUDY    70  69  96 S3        30.04S
LINCOLN*       CLOUDY    73  73 100 CALM      30.06S
SPRINGFIELD    MOSUNNY   75  71  87 SE3       30.06F
TAYLORVILLE    PTSUNNY   72  72  98 CALM      30.08F FOG
$$

ILZ033-039-045-046-055>057-062-063-271400-
EAST-CENTRAL ILLINOIS

CITY           SKY/WX    TMP DP  RH WIND       PRES   REMARKS
CHAMPAIGN      CLOUDY    73  70  90 SW7       30.11R
RANTOUL*       CLOUDY    73  72  95 S5        30.11R
MATTOON        MOSUNNY   72  69  90 SW3       30.11R
PARIS*         CLOUDY    72  72 100 CALM      30.12S FOG
$$

ILZ079-100>102-271400-
SOUTHWEST ILLINOIS

CITY           SKY/WX    TMP DP  RH WIND       PRES   REMARKS
BELLEVILLE     PTSUNNY   73  73 100 SE3       30.07R
CAHOKIA*       MOSUNNY   76  70  82 VRB3      30.07S
SPARTA*        PTSUNNY   73  71  95 CALM      30.10R
$$

ILZ064>066-069>071-074>076-080>082-084>086-088>090-092>094-271400-
SOUTH-CENTRAL ILLINOIS

CITY           SKY/WX    TMP DP  RH WIND       PRES   REMARKS
CARBONDALE     PTSUNNY   70  68  93 CALM      30.09R
EFFINGHAM*     PTSUNNY   72  72 100 CALM      30.12R
MARION         PTSUNNY   72  70  94 NE5       30.10R
MT. VERNON     MOSUNNY   72  64  78 CALM      30.11R
CENTRALIA*     CLOUDY    72  71  97 CALM      30.09R
SALEM*         PTSUNNY   73  70  88 CALM      30.10S
METROPOLIS*    CLOUDY    73  72  98 CALM      30.10R FOG
$$

ILZ067-068-072-073-078-083-087-091-271400-
SOUTHEAST ILLINOIS

CITY           SKY/WX    TMP DP  RH WIND       PRES   REMARKS
LAWRENCEVILLE  CLOUDY    74  72  93 W7        30.12R
FLORA*         CLOUDY    73  72  96 CALM      30.10S
FAIRFIELD*     CLOUDY    72  71  98 CALM      30.10R
HARRISBURG*    CLOUDY    72  71  99 CALM      30.11R
ROBINSON*      CLOUDY    72  72  99 NW5       30.12R
CARMI*         CLOUDY    73  73 100 NW6       30.10R
$$

ABBREVIATIONS USED IN REMARKS
   TC - TEMPERATURE IN CELSIUS
  WCI - WIND CHILL INDEX
   HX - HEAT INDEX
  VSB - VISIBILITY
$$




USA.gov is the U.S. government's official web portal to all federal, state and local government web resources and services.